Fort Yukon, AK

3:35 PM AKDT on April 24, 2018 (GMT -0800)
Fort Yukon

Weather History for PFYU - September, 2012

Change the Weather History Date:

Friday, September 28, 2012

  Actual Average Record
Temperature  
Mean Temperature 37 °F -  
Max Temperature 44 °F 39 °F 51 °F (2002)
Min Temperature 30 °F 25 °F 19 °F (2000)
Degree Days  
Heating Degree Days 28    
Moisture  
Dew Point 34 °F    
Average Humidity 88    
Maximum Humidity 100    
Minimum Humidity 66    
Precipitation  
Precipitation 0.00 in - - ()
Sea Level Pressure  
Sea Level Pressure 29.28 in    
Wind  
Wind Speed 4 mph (ENE)    
Max Wind Speed 12 mph    
Max Gust Speed 16 mph    
Visibility 6 miles    
Events      
Averages and records for this station are not official NWS values.
T = Trace of Precipitation, MM = Missing Value Source: NWS Daily Summary

Daily Weather History Graph

Daily Weather History Graph

Search for Another Location

Airport or City:

Astronomy

Sep. 28, 2012 Rise Set
Actual Time 7:44 AM AKDT 7:16 PM AKDT
Civil Twilight 6:52 AM AKDT 8:08 PM AKDT
Nautical Twilight 5:49 AM AKDT 9:10 PM AKDT
Astronomical Twilight 4:38 AM AKDT 10:20 PM AKDT
Moon 6:23 PM AKDT (9/28) 6:11 AM AKDT (9/28)
Length of Visible Light 13h 15m
Length of Day
11h 31m
Waxing Gibbous, 98% of the Moon is Illuminated
Sep 28
Waxing Gibbous
Sep 29
Full
Oct 7
Last Quarter
Oct 15
New
Oct 21
First Quarter

Hourly Weather History & Observations

Time (AKDT) Temp. Windchill Dew Point Humidity Pressure Visibility Wind Dir Wind Speed Gust Speed Precip Events Conditions
12:16 AM 33.8 °F - 32.0 °F 93% 29.14 in 0.5 mi Calm Calm - N/A   Overcast
12:36 AM 32.0 °F - 30.2 °F 93% 29.14 in 0.5 mi Calm Calm - N/A   Overcast
12:56 AM 33.8 °F - 30.2 °F 87% 29.15 in 0.5 mi Calm Calm - N/A   Overcast
1:16 AM 32.0 °F - 30.2 °F 93% 29.16 in 1.2 mi Calm Calm - N/A   Overcast
1:36 AM 32.0 °F - 30.2 °F 93% 29.16 in 0.8 mi Calm Calm - N/A   Overcast
1:56 AM 32.0 °F - 30.2 °F 93% 29.16 in 0.8 mi Calm Calm - N/A   Overcast
2:16 AM 30.2 °F - 30.2 °F 100% 29.17 in 1.0 mi Calm Calm - N/A   Overcast
2:36 AM 30.2 °F - 30.2 °F 100% 29.17 in 1.0 mi Calm Calm - N/A   Overcast
2:56 AM 30.2 °F 26.7 °F 28.4 °F 93% 29.18 in 2.0 mi ESE 3.5 mph - N/A   Overcast
3:16 AM 30.2 °F - 30.2 °F 100% 29.18 in 2.5 mi Calm Calm - N/A   Overcast
3:36 AM 30.2 °F - 30.2 °F 100% 29.19 in 5.0 mi Calm Calm - N/A   Overcast
3:56 AM 32.0 °F 27.5 °F 30.2 °F 93% 29.20 in 0.5 mi ENE 4.6 mph - N/A   Overcast
4:16 AM 32.0 °F 28.7 °F 30.2 °F 93% 29.20 in 0.5 mi ENE 3.5 mph - N/A   Overcast
4:36 AM 32.0 °F 27.5 °F 30.2 °F 93% 29.20 in 0.5 mi ENE 4.6 mph - N/A   Overcast
4:56 AM 32.0 °F 27.5 °F 30.2 °F 93% 29.20 in 0.5 mi East 4.6 mph - N/A   Overcast
5:16 AM 32.0 °F 28.7 °F 30.2 °F 93% 29.20 in 0.5 mi East 3.5 mph - N/A   Overcast
5:36 AM 33.8 °F 29.6 °F 32.0 °F 93% 29.20 in 0.5 mi East 4.6 mph - N/A   Overcast
5:56 AM 33.8 °F 30.8 °F 32.0 °F 93% 29.21 in 0.5 mi ESE 3.5 mph - N/A   Overcast
6:16 AM 33.8 °F 29.6 °F 32.0 °F 93% 29.21 in 0.5 mi East 4.6 mph - N/A   Overcast
6:36 AM 33.8 °F 29.6 °F 30.2 °F 87% 29.22 in 1.2 mi ENE 4.6 mph - N/A   Scattered Clouds
6:56 AM 32.0 °F 26.4 °F 30.2 °F 93% 29.22 in 0.8 mi NE 5.8 mph - N/A   Scattered Clouds
7:16 AM 32.0 °F 26.4 °F 30.2 °F 93% 29.23 in 0.8 mi ENE 5.8 mph - N/A   Scattered Clouds
7:36 AM 33.8 °F 27.7 °F 32.0 °F 93% 29.23 in 0.8 mi NE 6.9 mph - N/A   Scattered Clouds
7:56 AM 32.0 °F 28.7 °F 30.2 °F 93% 29.24 in 1.0 mi ENE 3.5 mph - N/A   Scattered Clouds
8:16 AM 32.0 °F 24.8 °F 30.2 °F 93% 29.24 in 1.0 mi NE 8.1 mph - N/A   Scattered Clouds
8:36 AM 33.8 °F 27.0 °F 30.2 °F 87% 29.24 in 0.8 mi NE 8.1 mph - N/A   Scattered Clouds
8:56 AM 33.8 °F 25.3 °F 32.0 °F 93% 29.24 in 1.0 mi NE 11.5 mph - N/A   Scattered Clouds
9:16 AM 33.8 °F 26.4 °F 33.8 °F 100% 29.25 in 1.2 mi ENE 9.2 mph - N/A   Scattered Clouds
9:36 AM 33.8 °F 27.0 °F 33.8 °F 100% 29.25 in 1.0 mi ENE 8.1 mph - N/A   Scattered Clouds
9:56 AM 35.6 °F 30.7 °F 33.8 °F 93% 29.26 in 1.0 mi ENE 5.8 mph - N/A   Scattered Clouds
10:16 AM 35.6 °F 29.2 °F 33.8 °F 93% 29.27 in 1.0 mi NE 8.1 mph - N/A   Scattered Clouds
10:36 AM 35.6 °F 28.6 °F 35.6 °F 100% 29.27 in 3.0 mi ENE 9.2 mph - N/A   Scattered Clouds
10:56 AM 37.4 °F 31.4 °F 35.6 °F 93% 29.28 in 10.0 mi ENE 8.1 mph - N/A   Scattered Clouds
11:16 AM 37.4 °F 31.4 °F 37.4 °F 100% 29.28 in 10.0 mi ENE 8.1 mph - N/A   Scattered Clouds
11:36 AM 39.2 °F 33.0 °F 37.4 °F 93% 29.28 in 10.0 mi NE 9.2 mph - N/A   Scattered Clouds
11:56 AM 39.2 °F 33.6 °F 37.4 °F 93% 29.28 in 10.0 mi ENE 8.1 mph - N/A   Overcast
12:16 PM 41.0 °F 36.4 °F 37.4 °F 87% 29.28 in 0.8 mi ENE 6.9 mph 16.1 mph N/A   Overcast
12:20 PM 41.0 °F 36.4 °F 37.4 °F 87% 29.28 in 10.0 mi ENE 6.9 mph 16.1 mph N/A   Overcast
12:36 PM 41.0 °F 37.1 °F 37.4 °F 87% 29.28 in 10.0 mi ENE 5.8 mph - N/A   Mostly Cloudy
12:56 PM 42.8 °F 38.0 °F 37.4 °F 81% 29.28 in 10.0 mi ENE 8.1 mph - N/A   Mostly Cloudy
1:16 PM 42.8 °F 37.0 °F 37.4 °F 81% 29.28 in 10.0 mi ENE 10.4 mph - N/A   Mostly Cloudy
1:36 PM 42.8 °F 38.6 °F 37.4 °F 81% 29.29 in 10.0 mi ENE 6.9 mph - N/A   Mostly Cloudy
1:56 PM 42.8 °F 39.3 °F 37.4 °F 81% 29.29 in 10.0 mi East 5.8 mph - N/A   Mostly Cloudy
2:16 PM 42.8 °F 38.6 °F 37.4 °F 81% 29.29 in 10.0 mi ENE 6.9 mph - N/A   Mostly Cloudy
2:36 PM 44.6 °F 40.2 °F 37.4 °F 76% 29.29 in 10.0 mi ENE 8.1 mph - N/A   Mostly Cloudy
2:56 PM 44.6 °F 39.2 °F 37.4 °F 76% 29.29 in 10.0 mi ENE 10.4 mph - N/A   Mostly Cloudy
3:16 PM 44.6 °F 40.7 °F 37.4 °F 76% 29.30 in 10.0 mi ENE 6.9 mph - N/A   Mostly Cloudy
3:36 PM 44.6 °F 42.2 °F 37.4 °F 76% 29.31 in 10.0 mi East 4.6 mph - N/A   Mostly Cloudy
3:56 PM 44.6 °F 41.4 °F 37.4 °F 76% 29.31 in 10.0 mi ENE 5.8 mph - N/A   Mostly Cloudy
4:16 PM 44.6 °F 40.2 °F 37.4 °F 76% 29.31 in 10.0 mi ENE 8.1 mph - N/A   Mostly Cloudy
4:36 PM 44.6 °F 40.7 °F 37.4 °F 76% 29.32 in 10.0 mi ENE 6.9 mph - N/A   Mostly Cloudy
5:16 PM 42.8 °F 38.6 °F 35.6 °F 76% 29.33 in 10.0 mi NE 6.9 mph - N/A   Overcast
5:36 PM 42.8 °F 38.6 °F 35.6 °F 76% 29.33 in 10.0 mi ENE 6.9 mph - N/A   Overcast
5:56 PM 42.8 °F 39.3 °F 35.6 °F 76% 29.33 in 10.0 mi ENE 5.8 mph - N/A   Overcast
6:16 PM 42.8 °F 40.1 °F 35.6 °F 76% 29.34 in 10.0 mi NE 4.6 mph - N/A   Overcast
6:36 PM 42.8 °F - 35.6 °F 76% 29.35 in 10.0 mi Calm Calm - N/A   Overcast
6:56 PM 42.8 °F 40.1 °F 37.4 °F 81% 29.35 in 10.0 mi NE 4.6 mph - N/A   Mostly Cloudy
7:16 PM 41.0 °F 38.0 °F 35.6 °F 81% 29.35 in 10.0 mi ENE 4.6 mph - N/A   Overcast
7:36 PM 39.2 °F - 35.6 °F 87% 29.36 in 10.0 mi Calm Calm - N/A   Mostly Cloudy
7:56 PM 39.2 °F 35.9 °F 35.6 °F 87% 29.36 in 10.0 mi NE 4.6 mph - N/A   Mostly Cloudy
8:16 PM 39.2 °F - 35.6 °F 87% 29.37 in 10.0 mi Calm Calm - N/A   Mostly Cloudy
8:36 PM 39.2 °F 37.0 °F 35.6 °F 87% 29.38 in 10.0 mi NE 3.5 mph - N/A   Mostly Cloudy
8:56 PM 39.2 °F 37.0 °F 35.6 °F 87% 29.38 in 10.0 mi NE 3.5 mph - N/A   Mostly Cloudy
9:16 PM 37.4 °F 33.8 °F 33.8 °F 87% 29.39 in 10.0 mi NNE 4.6 mph - N/A   Partly Cloudy
9:36 PM 37.4 °F 34.9 °F 33.8 °F 87% 29.39 in 10.0 mi NE 3.5 mph - N/A   Partly Cloudy
9:56 PM 37.4 °F 34.9 °F 33.8 °F 87% 29.40 in 10.0 mi ENE 3.5 mph - N/A   Clear
10:16 PM 37.4 °F 33.8 °F 33.8 °F 87% 29.41 in 10.0 mi ENE 4.6 mph - N/A   Clear
10:36 PM 37.4 °F 32.8 °F 33.8 °F 87% 29.41 in 10.0 mi ENE 5.8 mph - N/A   Clear
10:56 PM 35.6 °F 31.7 °F 33.8 °F 93% 29.41 in 10.0 mi NE 4.6 mph - N/A   Clear
11:16 PM 35.6 °F 31.7 °F 32.0 °F 87% 29.42 in 10.0 mi ENE 4.6 mph - N/A   Clear
11:36 PM 35.6 °F 32.8 °F 32.0 °F 87% 29.42 in 10.0 mi NE 3.5 mph - N/A   Clear
11:56 PM 35.6 °F 31.7 °F 32.0 °F 87% 29.43 in 10.0 mi ENE 4.6 mph - N/A   Clear